Weather History for Nome, AK

Change the Weather History Date:

Wednesday, May 29, 2013

  Actual Average Record
Temperature  
Mean Temperature 47 °F 42 °F  
Max Temperature 53 °F 49 °F 72 °F (1981)
Min Temperature 40 °F 35 °F 22 °F (1976)
Degree Days  
Heating Degree Days 18 23  
Month to date heating degree days 1018 830  
Since 1 July heating degree days 13759 13143  
Cooling Degree Days 0    
Month to date cooling degree days 0  
Year to date cooling degree days 0  
Moisture  
Dew Point 36 °F    
Average Humidity 0    
Maximum Humidity 0    
Minimum Humidity 0    
Precipitation  
Precipitation 0.00 in 0.03 in 0.34 in (1996)
Month to date precipitation 1.79 0.80  
Year to date precipitation 4.25 4.08  
Snow  
Snow 0.00 in 0.00 in 1.90 in (1968)
Month to date snowfall 10.8 2.2  
Since 1 July snowfall 65.7 75.3  
Snow Depth 0.00 in    
Sea Level Pressure  
Sea Level Pressure 29.90 in    
Wind  
Wind Speed 6 mph (WNW)    
Max Wind Speed 15 mph    
Max Gust Speed 17 mph    
Visibility 10 miles    
Events      
T = Trace of Precipitation, MM = Missing Value Source: NWS Daily Summary

Daily Weather History Graph

Daily Weather History Graph

Search for Another Location

Airport:

Trip Planner

Search our weather history database for the weather conditions in past years. The results will help you decide how hot, cold, wet, or windy it might be!

Date:

Astronomy

May. 29, 2013 Rise Set
Actual Time 4:57 AM AKDT 1:04 AM AKDT
Civil Twilight 3:31 AM AKDT Sun does not rise
Nautical Twilight Sun does not rise Sun does not rise
Astronomical Twilight Sun does not rise Sun does not rise
Moon 3:09 AM AKDT (5/29) 11:42 AM AKDT (5/29)
Length of Visible Light 24h 00m
Length of Day
20h 06m
Waning Gibbous, 71% of the Moon is Illuminated
May 29
Waning Gibbous
May 31
Last Quarter
Jun 8
New
Jun 16
First Quarter
Jun 23
Full

Hourly Weather History & Observations

Time (AKDT) Temp. Windchill Dew Point Humidity Pressure Visibility Wind Dir Wind Speed Gust Speed Precip Events Conditions
12:53 AM 46.9 °F - 35.1 °F 63% 29.90 in 10.0 mi NNW 10.4 mph - N/A   Scattered Clouds
1:53 AM 45.0 °F 38.9 °F 34.0 °F 65% 29.90 in 10.0 mi North 12.7 mph - N/A   Partly Cloudy
2:53 AM 44.1 °F 38.6 °F 34.0 °F 68% 29.91 in 10.0 mi NNW 10.4 mph - N/A   Clear
3:53 AM 45.0 °F 39.7 °F 33.1 °F 63% 29.91 in 10.0 mi North 10.4 mph - N/A   Clear
4:53 AM 44.1 °F 41.5 °F 34.0 °F 68% 29.91 in 10.0 mi NNE 4.6 mph - N/A   Partly Cloudy
5:53 AM 44.1 °F 40.8 °F 35.1 °F 71% 29.91 in 10.0 mi North 5.8 mph - N/A   Clear
6:53 AM 42.1 °F - 35.1 °F 76% 29.91 in 10.0 mi Calm Calm - N/A   Clear
7:53 AM 45.0 °F - 35.1 °F 68% 29.91 in 10.0 mi Calm Calm - N/A   Clear
8:53 AM 45.0 °F - 37.0 °F 74% 29.89 in 10.0 mi Calm Calm - N/A   Clear
9:53 AM 46.0 °F 44.8 °F 37.9 °F 73% 29.92 in 10.0 mi ESE 3.5 mph - N/A   Clear
10:53 AM 43.0 °F 40.3 °F 35.1 °F 74% 29.91 in 10.0 mi SSW 4.6 mph - N/A   Clear
11:53 AM 48.0 °F - 36.0 °F 63% 29.91 in 10.0 mi SW 6.9 mph - N/A   Clear
12:53 PM 50.0 °F - 36.0 °F 59% 29.92 in 10.0 mi WSW 9.2 mph - N/A   Clear
1:53 PM 52.0 °F - 37.0 °F 57% 29.91 in 10.0 mi West 11.5 mph - N/A   Clear
2:53 PM 51.1 °F - 37.0 °F 59% 29.90 in 10.0 mi West 9.2 mph - N/A   Clear
3:53 PM 52.0 °F - 37.0 °F 57% 29.90 in 10.0 mi West 11.5 mph - N/A   Clear
4:53 PM 51.1 °F - 36.0 °F 56% 29.90 in 10.0 mi West 13.8 mph - N/A   Scattered Clouds
5:53 PM 50.0 °F - 35.1 °F 57% 29.90 in 10.0 mi West 10.4 mph - N/A   Scattered Clouds
6:53 PM 48.9 °F - 35.1 °F 59% 29.90 in 10.0 mi West 9.2 mph - N/A   Scattered Clouds
7:53 PM 48.9 °F - 36.0 °F 61% 29.88 in 10.0 mi West 9.2 mph - N/A   Scattered Clouds
8:53 PM 50.0 °F - 37.0 °F 61% 29.87 in 10.0 mi WSW 3.5 mph - N/A   Scattered Clouds
9:53 PM 45.0 °F - 36.0 °F 71% 29.86 in 10.0 mi Calm Calm - N/A   Scattered Clouds
10:53 PM 44.1 °F - 35.1 °F 71% 29.86 in 10.0 mi Calm Calm - N/A   Scattered Clouds
11:53 PM 45.0 °F - 35.1 °F 68% 29.87 in 10.0 mi Calm Calm - N/A   Scattered Clouds